Denver Centennial, CO

12:19 AM MDT on July 25, 2017 (GMT -0600)
Centennial

Weather History for KAPA - July, 2014

Change the Weather History Date:

Monday, July 21, 2014

  Actual Average Record
Temperature  
Mean Temperature 80 °F -  
Max Temperature 93 °F 84 °F 100 °F (2005)
Min Temperature 66 °F 57 °F 55 °F (1997)
Cooling Degree Days 15    
Month to date cooling degree days 165  
Growing Degree Days 28 (Base 50)    
Moisture  
Dew Point 41 °F    
Average Humidity 29    
Maximum Humidity 45    
Minimum Humidity 12    
Precipitation  
Precipitation 0.00 in - - ()
Month to date precipitation 1.77  
Year to date precipitation 7.37  
Sea Level Pressure  
Sea Level Pressure 29.92 in    
Wind  
Wind Speed 9 mph (SSW)    
Max Wind Speed 15 mph    
Max Gust Speed 19 mph    
Visibility 10 miles    
Events      
Averages and records for this station are not official NWS values.
T = Trace of Precipitation, MM = Missing Value Source: NWS Daily Summary

Daily Weather History Graph

Daily Weather History Graph

Search for Another Location

Airport or City:

Trip Planner

Search our weather history database for the weather conditions in past years. The results will help you decide how hot, cold, wet, or windy it might be!

Date:

Astronomy

Jul. 21, 2014 Rise Set
Actual Time 5:49 AM MDT 8:21 PM MDT
Civil Twilight 5:18 AM MDT 8:52 PM MDT
Nautical Twilight 4:39 AM MDT 9:31 PM MDT
Astronomical Twilight 3:56 AM MDT 10:14 PM MDT
Moon 1:41 AM MDT (7/21) 4:07 PM MDT (7/21)
Length of Visible Light 15h 34m
Length of Day
14h 32m
Waning Crescent, 24% of the Moon is Illuminated
Jul 21
Waning Crescent
Jul 26
New
Aug 3
First Quarter
Aug 10
Full
Aug 17
Last Quarter

Hourly Weather History & Observations

Time (MDT) Temp. Dew Point Humidity Pressure Visibility Wind Dir Wind Speed Gust Speed Precip Events Conditions
12:53 AM 73.0 °F 44.1 °F 35% 29.87 in 10.0 mi SW 15.0 mph - N/A   Partly Cloudy
1:53 AM 68.0 °F 45.0 °F 43% 29.88 in 10.0 mi SSW 10.4 mph - N/A   Partly Cloudy
2:53 AM 69.1 °F 43.0 °F 39% 29.88 in 10.0 mi Variable 3.5 mph - N/A   Mostly Cloudy
3:53 AM 68.0 °F 44.1 °F 42% 29.90 in 10.0 mi SSW 8.1 mph - N/A   Mostly Cloudy
4:53 AM 70.0 °F 42.1 °F 36% 29.90 in 10.0 mi WSW 8.1 mph - N/A   Mostly Cloudy
5:53 AM 66.9 °F 44.1 °F 44% 29.93 in 10.0 mi South 9.2 mph - N/A   Scattered Clouds
6:53 AM 70.0 °F 45.0 °F 41% 29.93 in 10.0 mi SW 4.6 mph - N/A   Mostly Cloudy
7:53 AM 77.0 °F 44.1 °F 31% 29.94 in 10.0 mi SW 10.4 mph - N/A   Mostly Cloudy
8:53 AM 79.0 °F 44.1 °F 29% 29.96 in 10.0 mi WSW 5.8 mph - N/A   Mostly Cloudy
9:53 AM 82.0 °F 44.1 °F 26% 29.96 in 10.0 mi Variable 5.8 mph - N/A   Mostly Cloudy
10:53 AM 84.9 °F 44.1 °F 24% 29.96 in 10.0 mi WSW 11.5 mph - N/A   Mostly Cloudy
11:53 AM 88.0 °F 34.0 °F 15% 29.94 in 10.0 mi Calm Calm - N/A   Mostly Cloudy
12:53 PM 88.0 °F 34.0 °F 15% 29.94 in 10.0 mi Calm Calm - N/A   Mostly Cloudy
2:53 PM 91.9 °F 36.0 °F 14% 29.91 in 10.0 mi North 5.8 mph - N/A   Mostly Cloudy
3:53 PM 91.0 °F 33.1 °F 13% 29.90 in 10.0 mi Variable 4.6 mph - N/A   Mostly Cloudy
4:53 PM 91.9 °F 32.0 °F 12% 29.89 in 10.0 mi ESE 5.8 mph - N/A   Mostly Cloudy
5:53 PM 90.0 °F 34.0 °F 14% 29.90 in 10.0 mi East 8.1 mph - N/A   Scattered Clouds
6:53 PM 88.0 °F 39.9 °F 18% 29.90 in 10.0 mi South 11.5 mph - N/A   Partly Cloudy
7:53 PM 82.0 °F 42.1 °F 24% 29.91 in 10.0 mi SSW 11.5 mph - N/A   Partly Cloudy
8:53 PM 78.1 °F 42.1 °F 28% 29.92 in 10.0 mi South 8.1 mph - N/A   Partly Cloudy
9:53 PM 72.0 °F 44.1 °F 37% 29.96 in 10.0 mi South 5.8 mph - N/A   Partly Cloudy
10:53 PM 72.0 °F 43.0 °F 35% 29.96 in 10.0 mi South 8.1 mph - N/A   Partly Cloudy
11:53 PM 71.1 °F 42.1 °F 35% 29.97 in 10.0 mi WSW 6.9 mph - N/A   Clear